Location: Kinloch
(38.7406°N, 90.3254°W)
Time: 15:57:24
(UTC+00:00)

Cosmos 2369 - Pass Details

Date: 13 February 2026
Orbit: 840 x 853 km, 71.0° (Epoch: 9 March)

Event Time Altitude Azimuth Distance (km) Brightness Sun altitude
Rises 12:14:07 0° 224° (SW) 3,395 6.5 -8.5°
Reaches altitude 10° 12:16:45 10° 233° (SW) 2,461 5.7 -8.0°
Maximum altitude 12:21:55 37° 300° (WNW) 1,298 4.2 -7.0°
Drops below altitude 10° 12:27:08 10° 7° (N) 2,466 6.1 -6.0°
Sets 12:29:47 0° 15° (NNE) 3,403 6.9 -5.5°
